FENGYUN 1C DEB

Satellite information

Favourite Embed

Satellite Type and Status

DEBRISIN ORBIT

Key statistics

Satellite FENGYUN 1C DEB at a glance.

Uptime

9715

Days in orbit

Revolutions

≈ 13.8

Per day

Orbit

SSO

Sun Synchronous Orbit

Inclination

98.4

Latest

Satellite identification and parameters

Extended collection of information and parameters for FENGYUN 1C DEB.

Object identification

Identified? True

Debris? True

Object name: FENGYUN 1C DEB

International designator: 1999-025DRV

Object number (NORAD): 36148

Object ID (CCSDS): 36148

Country: PEOPLES REPUBLIC OF CHINA (PRC)

Current information (Y/N): Y

RCS size: SMALL

Orbital parameters

Period: 103.98 minutes

Inclination: 98.4223 deg

SMA: 7324.758 km

Apoapsis: 1155.592 km

Periapsis: 737.653 km

RAAN: 194.031 deg

Eccentricy: 0.02852918

Argument of periapsis: 0.3164 deg

Mean anomaly: 359.8126 deg

Mean motion: 13.84882302 rev/day

Mean motion (dot): 0.00007751 rev/day2

B* drag term: 0.0050243955 1/REarth

Two-line elements (TLE)

Creation date: Dec. 9, 2025, 5:08 a.m.

Reference frame: TEME

Reference center: EARTH

Epoch: Dec. 8, 2025, 8:01 p.m. UTC

TLE line 0: 0 FENGYUN 1C DEB

TLE line 1: 1 36148U 99025DRV 25342.83442313 .00007751 00000-0 50244-2 0 9998

TLE line 2: 2 36148 98.4223 194.0310 0285292 0.3164 359.8126 13.84882302901904

Live tracking on map

Real-time ground track for satellite FENGYUN 1C DEB.

In-orbit conjunctions

A list of the most updated potential collisions computed for object FENGYUN 1C DEB.

Target Orbit TCA Probability of collision Miss distance Type
COSMOS 2251 LEO 2025-11-19 02:42:48 0.0009497724 50.0 (m) PAYLOAD
CZ-6A DEB LEO 2024-12-13 13:27:53 0.0003110434 311.0 (m) DEBRIS

Associated space launch

Chinese polar orbiting meteorological satellite

FENGYUN 1C DEB was lifted into orbit during the mission ‘Long March 4B | Feng Yun 1C’, on board a Long March 4B space rocket.

The launch took place on May 10, 1999, 1:33 a.m. from Launch Complex 7.

For more information about the launch, click the button.

Launch to space Long March 4B | Feng Yun 1C
Long March 4B | Feng Yun 1C

Agency: N/A

Status: Launch Successful

Launch date: May 10, 1999, 1:33 a.m. UTC

Rocket: Long March 4B

Launch pad: Launch Complex 7

Location: Taiyuan Satellite Launch Center, People's Republic of China

...

Latest news about this satellite

There are no fresh news available about this satellite. Check back as we update our databases every day.


Newsletter sign-up

Weekly statistics, charts and insights to help you stay on top of the space industry.